Temp
8 8 8 8 8 8 8 8 8 8 8 8 7 8 7 7 7 7 7 7 7 7 7 7 7 7 7 7 7 7 7 6
9 8 8 8 8 8 8 8 8 8 8 8 7 7 7 7 7 7 7 7 7 7 7 7 6 6 6 6 6 6 7 7
9 8 8 8 8 8 8 8 8 8 7 8 7 7 7 7 7 7 7 7 6 6 6 6 6 6 6 6 6 6 6 7
7 6 7 7 7 8 8 8 7 7 7 7 7 8 7 7 7 7 7 6 6 6 6 6 6 6 6 6 6 7 6 7
8 7 6 7 7 7 7 7 8 7 7 7 7 7 7 7 7 7 7 6 6 6 6 6 6 6 6 6 5 6 6 6
8 7 7 7 7 7 7 7 7 8 7 7 7 7 7 7 7 6 6 6 6 6 6 6 6 5 6 6 5 7 6 6
8 7 7 7 7 7 6 7 7 7 7 7 6 7 7 7 7 7 6 6 6 6 6 6 6 6 6 5 5 6 6 6
7 7 7 7 7 7 6 6 7 7 6 7 6 6 6 6 6 7 6 6 6 6 6 6 6 6 6 6 5 5 6 6
7 6 6 6 6 7 7 7 7 6 6 7 6 6 6 5 6 6 6 6 6 6 6 6 6 6 6 6 6 5 5 5
7 7 6 6 6 6 6 6 6 6 6 6 6 6 7 7 6 6 5 5 5 6 6 6 6 6 6 6 6 6 6 6
6 6 6 6 6 6 6 6 6 6 6 6 6 5 5 5 6 6 5 4 5 5 5 6 6 5 6 5 6 6 6 6
4 4 5 5 5 5 5 5 5 6 6 6 6 6 5 5 5 4 4 4 4 4 3 5 6 5 5 5 5 5 5 6
3 3 2 3 3 4 4 4 4 5 5 5 5 5 5 5 5 4 1 2 4 5 5 4 5 6 5 6 6 6 6 6
2 3 2 1 1 1 2 3 3 3 4 4 4 4 4 4 5 4 3 3 3 3 3 4 4 4 5 5 6 5 6 6
-0 0 -0 -0 -0 -0 -0 -0 0 1 1 1 2 3 2 3 4 4 4 3 3 3 3 4 4 4 4 4 5 6 5 5
1 -1 0 -2 -1 -1 -1 -1 -0 0 0 0 0 0 1 1 1 3 3 3 3 3 3 3 2 2 3 4 4 5 5 5
0 -1 -1 -3 -2 -2 -1 -1 -1 -1 -0 -0 -0 -1 -1 -0 0 1 2 2 2 2 3 2 2 2 2 3 3 4 4 4
-1 -1 -2 -3 -3 -2 -2 -1 -1 -1 -1 -1 -1 -1 -1 -1 -1 -0 0 1 2 3 3 3 2 2 2 2 3 3 3 3
-2 -2 -3 -3 -3 -3 -3 -2 -2 -2 -1 -1 -1 -1 -1 -1 -1 -1 -0 0 1 2 2 3 2 2 2 2 2 3 2 3
-3 -3 -3 -3 -3 -3 -3 -3 -3 -3 -2 -2 -3 -3 -3 -2 -2 -2 -1 -1 -0 0 1 1 2 1 2 2 2 3 2 1
Height
3217 3219 3221 3221 3221 3222 3222 3221 3220 3220 3220 3220 3220 3219 3219 3219 3218 3219 3220 3220 3220 3220 3221 3221 3221 3221 3220 3221 3220 3220 3221 3221
3221 3221 3220 3220 3221 3222 3222 3223 3222 3222 3221 3221 3221 3221 3221 3221 3221 3221 3221 3222 3222 3222 3222 3222 3222 3222 3222 3222 3221 3221 3222 3221
3222 3223 3222 3222 3221 3220 3221 3222 3223 3223 3222 3222 3222 3222 3222 3222 3223 3223 3223 3222 3223 3224 3224 3223 3223 3223 3222 3222 3221 3221 3222 3221
3223 3222 3221 3222 3221 3221 3221 3220 3222 3222 3222 3223 3223 3223 3223 3223 3223 3224 3224 3225 3224 3224 3224 3224 3224 3223 3222 3222 3221 3220 3221 3219
3222 3222 3222 3221 3221 3221 3222 3222 3221 3221 3221 3221 3223 3223 3224 3223 3223 3224 3224 3225 3225 3225 3225 3224 3224 3223 3223 3221 3221 3220 3219 3218
3220 3220 3221 3221 3220 3220 3220 3221 3222 3221 3220 3220 3220 3222 3223 3223 3223 3223 3223 3224 3224 3224 3225 3225 3224 3224 3223 3221 3221 3220 3220 3219
3219 3219 3219 3218 3217 3218 3218 3217 3218 3217 3219 3219 3218 3219 3220 3221 3222 3222 3222 3222 3223 3223 3223 3223 3224 3223 3223 3221 3220 3218 3219 3218
3216 3215 3215 3216 3216 3216 3215 3215 3214 3214 3215 3216 3217 3217 3216 3217 3219 3219 3221 3221 3222 3222 3221 3221 3222 3222 3221 3221 3221 3218 3217 3218
3212 3212 3211 3211 3211 3211 3211 3211 3210 3210 3211 3210 3211 3211 3212 3212 3213 3216 3217 3217 3218 3219 3219 3218 3219 3219 3219 3220 3220 3219 3216 3216
3207 3208 3207 3207 3206 3207 3207 3208 3207 3206 3205 3205 3204 3205 3205 3207 3207 3208 3211 3213 3213 3213 3215 3216 3216 3216 3216 3216 3217 3217 3215 3215
3200 3200 3200 3200 3200 3201 3202 3201 3200 3200 3199 3198 3198 3198 3198 3199 3202 3204 3204 3205 3207 3208 3209 3211 3212 3213 3213 3213 3213 3213 3214 3212
3196 3195 3195 3194 3193 3193 3193 3194 3193 3192 3194 3192 3190 3191 3191 3192 3193 3194 3196 3199 3201 3201 3203 3205 3207 3208 3209 3209 3209 3209 3209 3209
3192 3191 3190 3188 3188 3187 3186 3186 3185 3185 3186 3185 3183 3182 3184 3185 3186 3181 3180 3188 3195 3194 3196 3196 3199 3202 3203 3203 3204 3204 3204 3204
3190 3187 3187 3185 3182 3181 3181 3180 3177 3176 3177 3178 3176 3175 3175 3176 3177 3179 3181 3183 3183 3189 3189 3191 3191 3195 3196 3197 3197 3198 3197 3200
3186 3182 3182 3182 3179 3178 3177 3176 3174 3171 3170 3170 3169 3168 3168 3168 3170 3171 3173 3173 3173 3179 3179 3185 3184 3185 3190 3191 3190 3190 3192 3192
3185 3180 3175 3177 3177 3175 3172 3170 3168 3165 3164 3164 3163 3161 3162 3161 3162 3162 3163 3164 3166 3166 3168 3171 3172 3176 3180 3183 3183 3184 3184 3184
3181 3178 3171 3174 3174 3172 3170 3168 3166 3163 3161 3160 3160 3157 3154 3154 3155 3155 3155 3156 3158 3159 3159 3160 3162 3164 3170 3172 3173 3175 3175 3175
3179 3175 3170 3171 3172 3170 3169 3166 3163 3161 3158 3156 3154 3152 3151 3148 3147 3147 3146 3147 3148 3150 3152 3153 3153 3153 3151 3159 3158 3158 3164 3166
3179 3174 3170 3170 3169 3167 3165 3163 3160 3157 3153 3151 3148 3147 3145 3144 3141 3139 3138 3138 3138 3139 3141 3143 3144 3144 3145 3145 3149 3147 3145 3156
3178 3174 3171 3169 3167 3165 3162 3160 3158 3154 3150 3147 3144 3142 3139 3138 3136 3133 3130 3129 3128 3129 3131 3133 3133 3135 3136 3137 3136 3137 3139 3138
Wind_Speed
12 11 10 11 10 9 9 8 8 8 8 7 6 5 5 8 12 13 13 13 13 12 12 11 9 8 7 6 5 6 7 5
5 6 7 9 8 7 7 7 7 6 6 6 4 3 4 5 9 12 12 11 11 11 11 10 9 7 6 5 3 1 3 3
1 3 2 2 5 6 5 5 5 5 5 4 3 1 4 6 7 7 9 10 9 8 8 8 7 6 5 3 2 2 2 3
2 5 4 2 2 1 1 4 2 2 3 4 3 2 3 6 8 8 7 7 7 7 7 7 6 5 5 1 3 1 4 2
7 8 6 9 6 4 3 3 2 2 2 3 3 4 5 8 10 9 9 8 7 6 7 6 7 6 6 4 4 5 2 2
11 11 10 12 13 12 14 9 6 6 4 5 6 6 8 9 11 12 12 11 10 10 9 8 7 8 8 5 7 9 4 6
15 16 14 15 17 16 15 15 10 10 12 7 8 9 9 11 13 15 15 14 13 13 13 11 10 10 9 5 8 9 7 6
17 18 19 19 19 19 18 18 15 14 16 17 13 12 13 14 15 18 17 18 18 17 16 16 15 13 11 11 11 12 11 7
21 21 23 23 22 22 20 18 23 20 21 23 21 19 21 19 18 18 20 20 22 21 20 19 17 13 13 14 13 13 16 11
27 27 26 26 27 26 26 22 21 27 28 28 28 27 27 26 25 22 20 23 24 25 24 22 20 19 17 16 14 13 15 15
20 25 28 31 32 30 29 28 28 27 32 32 32 32 31 30 29 30 28 26 25 26 28 27 25 24 22 22 20 18 16 17
16 16 18 21 27 33 34 33 33 35 31 34 36 37 36 35 31 38 35 31 29 28 27 29 29 27 26 26 25 23 22 19
18 17 18 19 19 21 26 32 35 38 36 35 38 40 40 41 33 30 34 35 32 31 32 29 31 30 31 31 29 28 26 23
18 20 17 18 21 22 21 22 26 33 37 38 41 40 41 39 40 36 27 35 38 40 34 35 33 34 36 34 34 31 30 26
21 24 21 18 19 20 20 21 23 26 29 34 36 40 36 38 37 38 33 29 29 46 41 49 42 36 38 39 38 38 31 31
22 24 27 20 19 20 22 23 23 25 26 26 28 32 35 32 30 34 35 35 32 27 41 51 47 42 39 39 42 38 37 36
24 23 24 18 19 21 22 23 24 25 26 26 25 27 29 33 31 29 31 34 32 41 34 42 41 48 44 47 40 42 40 38
23 21 19 17 16 19 20 21 23 25 27 28 28 25 25 26 28 30 29 31 30 33 33 35 38 37 46 51 52 39 42 42
21 21 19 19 20 22 24 25 25 26 27 29 29 28 25 24 22 23 27 27 27 30 29 31 35 40 37 42 45 61 42 52
19 19 18 18 18 19 20 21 23 26 27 28 29 28 27 24 23 21 21 23 27 28 27 27 30 33 37 40 37 50 62 56
Wind_Direction
123 101 82 77 68 59 53 54 55 49 43 46 73 85 109 125 125 123 121 120 117 114 110 109 107 103 97 84 72 81 93 96
121 101 111 109 92 76 63 50 41 39 39 39 49 95 111 134 138 135 132 128 128 126 124 124 124 119 112 105 97 74 122 116
140 136 125 85 117 116 103 69 49 30 16 19 20 62 157 157 159 153 148 143 142 141 141 143 145 144 138 124 165 181 239 165
288 274 297 223 288 162 163 140 107 49 4 340 339 293 228 187 185 181 177 170 168 167 168 169 171 183 176 156 277 263 177 173
299 294 250 295 284 294 275 278 225 159 318 296 300 286 262 221 211 207 200 201 207 209 205 202 205 202 211 201 272 279 235 219
259 262 280 289 296 294 291 286 261 247 211 279 279 270 264 237 234 227 220 217 223 228 230 229 223 251 236 205 253 266 273 243
257 263 258 267 270 273 277 281 281 295 292 249 264 271 268 267 247 237 240 233 232 238 244 241 250 252 256 248 263 275 268 253
268 268 270 268 270 269 268 264 265 261 273 282 270 259 267 257 257 254 242 247 243 240 242 249 249 254 268 268 263 277 276 262
268 270 272 274 273 271 269 268 261 263 255 260 262 255 259 256 256 254 256 250 252 252 250 252 254 261 263 269 273 265 274 274
270 270 272 272 271 270 269 268 259 249 257 253 255 252 257 255 253 249 252 252 250 253 257 259 261 264 265 269 273 274 280 283
281 275 272 270 270 270 267 263 261 252 250 253 256 251 252 257 255 259 247 247 248 249 251 254 256 258 263 267 268 269 271 279
305 297 292 286 275 270 268 266 262 259 258 257 253 254 255 252 253 253 247 244 247 242 253 253 253 254 255 257 260 267 268 270
311 311 314 307 296 283 276 269 266 265 259 259 261 260 259 257 250 279 261 237 247 252 252 250 258 254 257 254 256 260 262 264
315 310 312 311 313 313 306 290 281 272 267 264 262 266 267 266 268 268 267 241 253 249 256 257 253 261 260 257 255 256 259 263
336 315 311 312 309 309 309 308 301 294 290 279 273 269 276 276 270 266 264 267 251 237 247 254 258 248 255 262 258 256 259 261
339 323 304 307 308 310 314 315 316 315 314 309 302 287 277 280 279 272 265 257 250 254 250 252 252 246 248 253 260 258 262 261
340 331 302 306 312 314 316 318 321 323 320 323 320 319 308 287 283 278 272 268 259 255 261 252 247 241 263 249 251 258 257 259
344 342 315 321 316 330 332 323 321 320 318 318 323 321 321 316 296 282 280 276 269 262 258 249 254 262 259 247 245 245 252 255
356 350 336 327 318 314 316 324 323 321 321 321 322 322 323 319 318 294 279 277 273 263 260 258 256 250 258 260 261 245 252 249
353 352 344 336 332 328 330 329 322 321 319 318 320 323 324 326 326 319 296 278 274 272 267 262 261 257 257 254 255 263 264 269